This is the latest recevied weather packets stored in our database for station/object KE8RXN. If no packets are shown the sender has not sent any weather packets the latest 1 day(s).
| Time | Temp. | Humidity | Pressure | Rain* | Wind** | Luminosity | Snow |
|---|---|---|---|---|---|---|---|
| 1778017943 | 11.11° C | 44% | 1012 hPa | 0 mm | 1.34 m/s, 300° | 110 W/m² | - |
| 1778017641 | 11.11° C | 44% | 1012 hPa | 0 mm | 1.34 m/s, 315° | 120 W/m² | - |
| 1778017338 | 11.11° C | 44% | 1012 hPa | 0 mm | 1.34 m/s, 356° | 133 W/m² | - |
| 1778017035 | 11.67° C | 43% | 1012.2 hPa | 0 mm | 1.79 m/s, 236° | 154 W/m² | - |
| 1778016733 | 11.67° C | 44% | 1012.1 hPa | 0 mm | 1.34 m/s, 302° | 155 W/m² | - |
| 1778016429 | 11.67° C | 44% | 1012.1 hPa | 0 mm | 1.79 m/s, 331° | 215 W/m² | - |
| 1778016126 | 11.11° C | 44% | 1011.9 hPa | 0 mm | 1.79 m/s, 229° | 181 W/m² | - |
| 1778015823 | 11.67° C | 44% | 1011.9 hPa | 0 mm | 1.34 m/s, 284° | 150 W/m² | - |
| 1778015520 | 11.67° C | 44% | 1012.2 hPa | 0 mm | 1.34 m/s, 296° | 183 W/m² | - |
| 1778015216 | 12.22° C | 44% | 1012.1 hPa | 0 mm | 0.45 m/s, 41° | 300 W/m² | - |
| 1778014913 | 12.22° C | 43% | 1012.2 hPa | 0 mm | 1.34 m/s, 308° | 284 W/m² | - |
| 1778014611 | 12.22° C | 45% | 1012.2 hPa | 0 mm | 0.45 m/s, 329° | 261 W/m² | - |
| 1778014309 | 12.22° C | 44% | 1012 hPa | 0 mm | 1.34 m/s, 244° | 332 W/m² | - |
| 1778014005 | 12.22° C | 43% | 1012.2 hPa | 0 mm | 3.13 m/s, 246° | 263 W/m² | - |
| 1778013703 | 12.22° C | 45% | 1012.2 hPa | 0 mm | 0.45 m/s, 233° | 302 W/m² | - |
| 1778013400 | 12.22° C | 44% | 1012.2 hPa | 0 mm | 0.89 m/s, 15° | 286 W/m² | - |
| 1778013096 | 12.22° C | 43% | 1012.2 hPa | 0 mm | 2.68 m/s, 240° | 231 W/m² | - |
| 1778012792 | 11.67° C | 44% | 1012.3 hPa | 0 mm | 0.89 m/s, 236° | 268 W/m² | - |
| 1778012488 | 12.22° C | 43% | 1012.4 hPa | 0 mm | 2.24 m/s, 309° | 319 W/m² | - |
| 1778012180 | 12.22° C | 44% | 1012.3 hPa | 0 mm | 0.89 m/s, 303° | 312 W/m² | - |
| 1778011878 | 12.22° C | 43% | 1012.4 hPa | 0 mm | 1.79 m/s, 348° | 410 W/m² | - |
| 1778011575 | 12.22° C | 43% | 1012.6 hPa | 0 mm | 0.89 m/s, 297° | 332 W/m² | - |
| 1778011272 | 12.78° C | 43% | 1012.3 hPa | 0 mm | 1.79 m/s, 303° | 232 W/m² | - |
| 1778010968 | 12.22° C | 42% | 1012.3 hPa | 0 mm | 2.24 m/s, 283° | 443 W/m² | - |
| 1778010666 | 12.22° C | 42% | 1012.1 hPa | 0 mm | 2.24 m/s, 269° | 282 W/m² | - |
* Rain latest hour (hover to see other rain measurements)
** Current wind speed in m/s (hover to see current wind gust speed)